Location: West Cummington
(42.4920°N, 72.9680°W)
Time: 20:16:16
(UTC-04:00)

ATLAS 2AS CENTAUR R/B - Visible Passes

Search period start: 06 July 2015 00:00
Search period end: 16 July 2015 00:00
Orbit: 912 x 1300 km, 63.7° (Epoch: 29 June)

Date Brightness Start Highest point End Pass type
(mag) Time Alt. Az. Time Alt. Az. Time Alt. Az.
06 Jul 4.5 21:00:17 10° NW 21:07:17 33° WSW 21:13:51 10° S visible
08 Jul 5.2 21:23:40 10° WNW 21:28:02 15° WSW 21:31:49 10° SW visible
11 Jul 5.7 21:02:55 10° W 21:04:21 10° WSW 21:05:06 10° WSW visible
